Time,TemperatureF,DewpointF,PressureIn,WindDirection,WindDirectionDegrees,WindSpeedMPH,WindSpeedGustMPH,Humidity,HourlyPrecipIn,Conditions,Clouds,dailyrainin,SoftwareType,DateUTC
2013-07-03 00:00:00,88.5,88.5,30.03,SSW,207,0.0,0.4,100,0.00,,---,0.00,VWS V14.01,2013-07-03 04:00:00,
2013-07-03 00:05:00,88.5,88.5,30.03,SSW,207,0.0,0.0,100,0.00,,---,0.00,VWS V14.01,2013-07-03 04:05:00,
2013-07-03 00:10:00,88.5,88.5,30.03,SSW,207,0.0,0.0,100,0.00,,---,0.00,VWS V14.01,2013-07-03 04:10:00,
2013-07-03 00:15:00,88.5,88.5,30.03,SSW,207,0.0,0.0,100,0.00,,---,0.00,VWS V14.01,2013-07-03 04:15:00,
2013-07-03 00:20:00,88.5,88.5,30.03,SSW,207,0.0,0.4,100,0.00,,---,0.00,VWS V14.01,2013-07-03 04:20:00,
2013-07-03 00:25:00,88.5,88.5,30.03,SSW,207,0.0,0.0,100,0.00,,---,0.00,VWS V14.01,2013-07-03 04:25:00,
2013-07-03 00:30:00,87.6,87.6,30.03,SSW,207,0.0,0.0,100,0.00,,---,0.00,VWS V14.01,2013-07-03 04:30:00,
2013-07-03 00:35:00,87.6,87.6,30.03,SSW,207,0.0,0.0,100,0.00,,---,0.00,VWS V14.01,2013-07-03 04:35:00,
2013-07-03 00:40:00,89.2,88.6,30.03,SSW,207,0.0,0.0,98,0.00,,---,0.00,VWS V14.01,2013-07-03 04:40:00,
2013-07-03 00:45:00,87.4,87.4,30.03,SSW,207,0.0,0.0,100,0.00,,---,0.00,VWS V14.01,2013-07-03 04:45:00,
2013-07-03 00:50:00,87.4,87.4,30.03,SSW,207,0.0,0.0,100,0.00,,---,0.00,VWS V14.01,2013-07-03 04:50:00,
2013-07-03 00:55:00,88.5,88.5,30.03,SSW,207,0.0,0.0,100,0.00,,---,0.00,VWS V14.01,2013-07-03 04:55:00,
2013-07-03 01:00:00,87.4,87.4,30.03,SSW,208,0.0,0.0,100,0.00,,---,0.00,VWS V14.01,2013-07-03 05:00:00,
2013-07-03 01:05:00,87.1,87.1,30.03,SSW,208,0.0,0.0,100,0.00,,---,0.00,VWS V14.01,2013-07-03 05:05:00,
2013-07-03 01:10:00,88.5,88.5,30.03,SSW,207,0.0,0.0,100,0.00,,---,0.00,VWS V14.01,2013-07-03 05:10:00,
2013-07-03 01:15:00,87.1,87.1,30.03,SSW,208,0.0,0.0,100,0.00,,---,0.00,VWS V14.01,2013-07-03 05:15:00,
2013-07-03 01:20:00,87.1,87.1,30.03,SSW,208,0.0,0.0,100,0.00,,---,0.00,VWS V14.01,2013-07-03 05:20:00,
2013-07-03 01:25:00,87.1,87.1,30.03,SSW,207,2.7,5.4,100,0.00,,---,0.00,VWS V14.01,2013-07-03 05:25:00,
2013-07-03 01:30:00,87.8,87.8,30.03,SSW,207,0.0,4.5,100,0.00,,---,0.00,VWS V14.01,2013-07-03 05:30:00,
2013-07-03 01:35:00,87.6,87.6,30.03,SSW,207,0.0,0.0,100,0.00,,---,0.00,VWS V14.01,2013-07-03 05:35:00,
2013-07-03 01:40:00,87.8,87.8,30.03,SSW,207,2.2,7.2,100,0.00,,---,0.00,VWS V14.01,2013-07-03 05:40:00,
2013-07-03 01:45:00,87.8,87.8,30.03,SSW,208,0.0,2.2,100,0.00,,---,0.00,VWS V14.01,2013-07-03 05:45:00,
2013-07-03 01:50:00,87.4,87.4,30.03,SSW,207,0.0,0.0,100,0.00,,---,0.00,VWS V14.01,2013-07-03 05:50:00,
2013-07-03 01:55:00,87.8,87.8,30.03,SSW,208,0.0,0.0,100,0.00,,---,0.00,VWS V14.01,2013-07-03 05:55:00,
2013-07-03 02:00:00,87.8,87.8,30.03,SSW,207,0.0,0.0,100,0.00,,---,0.00,VWS V14.01,2013-07-03 06:00:00,
2013-07-03 02:05:00,87.1,87.1,30.03,SSW,208,0.0,0.0,100,0.00,,---,0.00,VWS V14.01,2013-07-03 06:05:00,
2013-07-03 02:10:00,87.1,87.1,30.03,SSW,207,0.0,0.0,100,0.00,,---,0.00,VWS V14.01,2013-07-03 06:10:00,
2013-07-03 02:15:00,88.0,88.0,30.03,SSW,208,0.0,0.0,100,0.00,,---,0.00,VWS V14.01,2013-07-03 06:15:00,
2013-07-03 02:20:00,87.1,87.1,30.03,SSW,208,0.0,0.0,100,0.00,,---,0.00,VWS V14.01,2013-07-03 06:20:00,
2013-07-03 02:25:00,88.0,88.0,30.03,SSW,208,0.0,0.0,100,0.00,,---,0.00,VWS V14.01,2013-07-03 06:25:00,
2013-07-03 02:30:00,87.6,87.6,30.03,SSW,208,0.0,0.0,100,0.00,,---,0.00,VWS V14.01,2013-07-03 06:30:00,
2013-07-03 02:35:00,87.8,87.8,30.03,SSW,205,2.7,6.3,100,0.00,,---,0.00,VWS V14.01,2013-07-03 06:35:00,
2013-07-03 02:40:00,87.6,87.6,30.03,SSW,207,2.2,4.5,100,0.00,,---,0.00,VWS V14.01,2013-07-03 06:40:00,
2013-07-03 02:45:00,87.6,87.6,30.03,SSW,207,3.6,4.9,100,0.00,,---,0.00,VWS V14.01,2013-07-03 06:45:00,
2013-07-03 02:50:00,87.6,87.6,30.03,SSW,208,3.6,5.4,100,0.00,,---,0.00,VWS V14.01,2013-07-03 06:50:00,
2013-07-03 02:55:00,87.6,87.6,30.03,SSW,207,4.0,5.4,100,0.00,,---,0.00,VWS V14.01,2013-07-03 06:55:00,
2013-07-03 03:00:00,87.6,87.6,30.06,SSW,207,4.0,5.4,100,0.00,,---,0.00,VWS V14.01,2013-07-03 07:00:00,
2013-07-03 03:05:00,87.8,87.8,30.03,SSW,208,1.8,3.1,100,0.00,,---,0.00,VWS V14.01,2013-07-03 07:05:00,
2013-07-03 03:10:00,88.0,88.0,30.06,SSW,212,6.3,8.9,100,0.00,,---,0.00,VWS V14.01,2013-07-03 07:10:00,
2013-07-03 03:15:00,88.0,88.0,30.06,SSW,211,5.8,7.6,100,0.00,,---,0.00,VWS V14.01,2013-07-03 07:15:00,
2013-07-03 03:20:00,88.0,88.0,30.03,SSW,208,0.0,0.0,100,0.00,,---,0.00,VWS V14.01,2013-07-03 07:20:00,
2013-07-03 03:25:00,88.0,88.0,30.06,SSW,207,4.9,6.7,100,0.00,,---,0.00,VWS V14.01,2013-07-03 07:25:00,
2013-07-03 03:30:00,87.6,87.6,30.03,SSW,208,0.0,0.0,100,0.00,,---,0.00,VWS V14.01,2013-07-03 07:30:00,
2013-07-03 03:35:00,87.8,87.8,30.06,SSW,207,0.0,4.5,100,0.00,,---,0.00,VWS V14.01,2013-07-03 07:35:00,
2013-07-03 03:40:00,87.4,87.4,30.06,SSW,207,0.0,0.0,100,0.00,,---,0.00,VWS V14.01,2013-07-03 07:40:00,
2013-07-03 03:45:00,87.3,87.3,30.06,SSW,207,0.0,0.4,100,0.00,,---,0.00,VWS V14.01,2013-07-03 07:45:00,
2013-07-03 03:50:00,87.3,87.3,30.06,SSW,207,5.8,7.6,100,0.00,,---,0.00,VWS V14.01,2013-07-03 07:50:00,
2013-07-03 03:55:00,87.3,87.3,30.06,SSW,202,4.5,6.7,100,0.00,,---,0.00,VWS V14.01,2013-07-03 07:55:00,
2013-07-03 04:00:00,87.6,87.6,30.06,SSW,207,4.0,5.4,100,0.00,,---,0.00,VWS V14.01,2013-07-03 08:00:00,
2013-07-03 04:05:00,87.4,87.4,30.03,SSW,208,7.2,9.8,100,0.00,,---,0.00,VWS V14.01,2013-07-03 08:05:00,
2013-07-03 04:10:00,87.6,87.6,30.03,SSW,201,8.1,10.7,100,0.00,,---,0.00,VWS V14.01,2013-07-03 08:10:00,
2013-07-03 04:15:00,88.0,88.0,30.06,SSW,211,5.8,7.6,100,0.00,,---,0.00,VWS V14.01,2013-07-03 08:15:00,
2013-07-03 04:20:00,87.8,87.8,30.06,SSW,208,8.9,13.4,100,0.00,,---,0.00,VWS V14.01,2013-07-03 08:20:00,
2013-07-03 04:25:00,87.8,87.8,30.06,SSW,209,7.6,11.2,100,0.00,,---,0.00,VWS V14.01,2013-07-03 08:25:00,
2013-07-03 04:30:00,87.8,87.8,30.06,SSW,207,3.1,4.9,100,0.00,,---,0.00,VWS V14.01,2013-07-03 08:30:00,
2013-07-03 04:35:00,87.8,87.8,30.06,SSW,207,6.7,8.5,100,0.00,,---,0.00,VWS V14.01,2013-07-03 08:35:00,
2013-07-03 04:40:00,87.6,87.6,30.06,SSW,208,5.8,8.9,100,0.00,,---,0.00,VWS V14.01,2013-07-03 08:40:00,
2013-07-03 04:45:00,87.6,87.6,30.06,SSW,205,8.5,9.4,100,0.00,,---,0.00,VWS V14.01,2013-07-03 08:45:00,
2013-07-03 04:50:00,87.3,87.3,30.06,SSW,207,5.8,7.6,100,0.00,,---,0.00,VWS V14.01,2013-07-03 08:50:00,
2013-07-03 04:55:00,87.8,87.8,30.06,SSW,197,8.1,11.6,100,0.00,,---,0.00,VWS V14.01,2013-07-03 08:55:00,
2013-07-03 05:00:00,87.8,87.8,30.06,SSW,198,9.4,10.3,100,0.00,,---,0.00,VWS V14.01,2013-07-03 09:00:00,
2013-07-03 05:05:00,88.0,88.0,30.06,SSW,194,6.7,12.1,100,0.00,,---,0.00,VWS V14.01,2013-07-03 09:05:00,
2013-07-03 05:10:00,87.6,87.6,30.03,SSW,201,8.1,10.7,100,0.00,,---,0.00,VWS V14.01,2013-07-03 09:10:00,
2013-07-03 05:15:00,87.6,87.6,30.06,SSW,207,10.7,12.1,100,0.00,,---,0.00,VWS V14.01,2013-07-03 09:15:00,
2013-07-03 05:20:00,87.8,87.8,30.06,SSW,208,8.9,13.4,100,0.00,,---,0.00,VWS V14.01,2013-07-03 09:20:00,
2013-07-03 05:25:00,87.8,87.8,30.06,SSW,209,7.6,11.2,100,0.00,,---,0.00,VWS V14.01,2013-07-03 09:25:00,
2013-07-03 05:30:00,88.0,88.0,30.06,SSW,207,5.8,10.3,100,0.00,,---,0.00,VWS V14.01,2013-07-03 09:30:00,
2013-07-03 05:35:00,88.0,88.0,30.06,SSW,208,5.4,7.6,100,0.00,,---,0.00,VWS V14.01,2013-07-03 09:35:00,
2013-07-03 05:40:00,87.8,87.8,30.06,SSW,192,8.1,8.9,100,0.00,,---,0.00,VWS V14.01,2013-07-03 09:40:00,
2013-07-03 05:45:00,87.8,87.8,30.06,SSW,192,6.7,8.1,100,0.00,,---,0.00,VWS V14.01,2013-07-03 09:45:00,
2013-07-03 05:50:00,87.6,87.6,30.06,SSW,195,8.1,8.9,100,0.00,,---,0.00,VWS V14.01,2013-07-03 09:50:00,
2013-07-03 05:55:00,87.8,87.8,30.06,SSW,198,8.5,9.4,100,0.00,,---,0.00,VWS V14.01,2013-07-03 09:55:00,
2013-07-03 06:00:00,87.8,87.8,30.06,SSW,205,9.8,10.3,100,0.00,,---,0.00,VWS V14.01,2013-07-03 10:00:00,
2013-07-03 06:05:00,87.8,87.8,30.06,SSW,208,9.8,12.5,100,0.00,,---,0.00,VWS V14.01,2013-07-03 10:05:00,
2013-07-03 06:10:00,88.0,88.0,30.06,SSW,202,7.6,11.6,100,0.00,,---,0.00,VWS V14.01,2013-07-03 10:10:00,
2013-07-03 06:15:00,88.2,88.2,30.09,SW,214,7.6,11.2,100,0.00,,---,0.00,VWS V14.01,2013-07-03 10:15:00,
2013-07-03 06:20:00,87.8,87.8,30.06,SSW,204,9.4,10.7,100,0.00,,---,0.00,VWS V14.01,2013-07-03 10:20:00,
2013-07-03 06:25:00,88.3,88.3,30.09,SSW,205,9.4,12.1,100,0.00,,---,0.00,VWS V14.01,2013-07-03 10:25:00,
2013-07-03 06:30:00,88.5,88.5,30.09,SSW,195,13.9,13.9,100,0.00,,---,0.00,VWS V14.01,2013-07-03 10:30:00,
2013-07-03 06:35:00,88.7,88.1,30.09,SSW,195,10.7,14.8,98,0.00,,---,0.00,VWS V14.01,2013-07-03 10:35:00,
2013-07-03 06:40:00,88.9,88.2,30.09,SSW,204,10.7,16.6,98,0.00,,---,0.00,VWS V14.01,2013-07-03 10:40:00,
2013-07-03 06:45:00,87.8,87.8,30.06,SSW,192,6.7,8.1,100,0.00,,---,0.00,VWS V14.01,2013-07-03 10:45:00,
2013-07-03 06:50:00,89.2,87.3,30.09,SSW,205,5.8,13.0,94,0.00,,---,0.00,VWS V14.01,2013-07-03 10:50:00,
2013-07-03 06:55:00,89.2,87.3,30.09,SSW,209,8.5,10.3,94,0.00,,---,0.00,VWS V14.01,2013-07-03 10:55:00,
2013-07-03 07:00:00,87.8,87.8,30.06,SSW,205,9.8,10.3,100,0.00,,---,0.00,VWS V14.01,2013-07-03 11:00:00,
2013-07-03 07:05:00,87.8,87.8,30.06,SSW,208,9.8,12.5,100,0.00,,---,0.00,VWS V14.01,2013-07-03 11:05:00,
2013-07-03 07:10:00,89.6,85.6,30.09,SSW,201,8.9,13.9,88,0.00,,---,0.00,VWS V14.01,2013-07-03 11:10:00,
2013-07-03 07:15:00,90.0,85.6,30.09,SSW,205,7.2,14.8,87,0.00,,---,0.00,VWS V14.01,2013-07-03 11:15:00,
2013-07-03 07:20:00,88.3,88.3,30.09,SSW,202,9.8,13.0,100,0.00,,---,0.00,VWS V14.01,2013-07-03 11:20:00,
2013-07-03 07:25:00,88.3,88.3,30.09,SSW,205,9.4,12.1,100,0.00,,---,0.00,VWS V14.01,2013-07-03 11:25:00,
2013-07-03 07:30:00,90.5,84.6,30.09,SSW,197,10.7,15.7,83,0.00,,---,0.00,VWS V14.01,2013-07-03 11:30:00,
2013-07-03 07:35:00,90.7,84.1,30.09,SSW,208,9.8,17.0,81,0.00,,---,0.00,VWS V14.01,2013-07-03 11:35:00,
2013-07-03 07:40:00,88.9,88.2,30.09,SSW,204,10.7,16.6,98,0.00,,---,0.00,VWS V14.01,2013-07-03 11:40:00,
2013-07-03 07:45:00,90.9,84.6,30.09,SW,216,11.2,13.0,82,0.00,,---,0.00,VWS V14.01,2013-07-03 11:45:00,
2013-07-03 07:50:00,89.2,87.3,30.09,SSW,205,5.8,13.0,94,0.00,,---,0.00,VWS V14.01,2013-07-03 11:50:00,
2013-07-03 07:55:00,91.4,84.0,30.09,SSW,211,13.9,15.2,79,0.00,,---,0.00,VWS V14.01,2013-07-03 11:55:00,
2013-07-03 08:00:00,91.2,83.8,30.09,SW,215,9.4,15.7,79,0.00,,---,0.00,VWS V14.01,2013-07-03 12:00:00,
2013-07-03 08:05:00,91.4,84.0,30.09,SSW,204,11.2,16.6,79,0.00,,---,0.00,VWS V14.01,2013-07-03 12:05:00,
2013-07-03 08:10:00,91.4,84.0,30.09,SW,216,8.9,14.8,79,0.00,,---,0.00,VWS V14.01,2013-07-03 12:10:00,
2013-07-03 08:15:00,90.0,85.6,30.09,SSW,205,7.2,14.8,87,0.00,,---,0.00,VWS V14.01,2013-07-03 12:15:00,
2013-07-03 08:20:00,91.4,84.0,30.12,SW,216,12.5,16.6,79,0.00,,---,0.00,VWS V14.01,2013-07-03 12:20:00,
2013-07-03 08:25:00,90.3,84.8,30.09,SSW,194,8.5,15.2,84,0.00,,---,0.00,VWS V14.01,2013-07-03 12:25:00,
2013-07-03 08:30:00,91.0,83.6,30.09,SSW,211,13.4,17.9,79,0.00,,---,0.00,VWS V14.01,2013-07-03 12:30:00,
2013-07-03 08:35:00,90.7,84.1,30.09,SSW,208,9.8,17.0,81,0.00,,---,0.00,VWS V14.01,2013-07-03 12:35:00,
2013-07-03 08:40:00,91.2,84.2,30.09,South,191,10.7,15.7,80,0.00,,---,0.00,VWS V14.01,2013-07-03 12:40:00,
2013-07-03 08:45:00,91.2,84.2,30.12,SSW,205,16.1,17.9,80,0.00,,---,0.00,VWS V14.01,2013-07-03 12:45:00,
2013-07-03 08:50:00,91.4,84.4,30.09,SSW,211,10.7,15.2,80,0.00,,---,0.00,VWS V14.01,2013-07-03 12:50:00,
2013-07-03 08:55:00,91.6,83.8,30.12,SSW,197,17.0,18.8,78,0.00,,---,0.00,VWS V14.01,2013-07-03 12:55:00,
2013-07-03 09:00:00,92.8,84.2,30.12,SW,216,16.6,17.0,76,0.00,,---,0.00,VWS V14.01,2013-07-03 13:00:00,
2013-07-03 09:05:00,91.4,84.0,30.09,SSW,204,11.2,16.6,79,0.00,,---,0.00,VWS V14.01,2013-07-03 13:05:00,
2013-07-03 09:10:00,91.4,84.0,30.09,SW,216,8.9,14.8,79,0.00,,---,0.00,VWS V14.01,2013-07-03 13:10:00,
2013-07-03 09:15:00,93.6,84.9,30.12,SSW,192,17.9,19.7,76,0.00,,---,0.00,VWS V14.01,2013-07-03 13:15:00,
2013-07-03 09:20:00,95.2,83.8,30.12,SW,214,14.3,21.0,70,0.00,,---,0.00,VWS V14.01,2013-07-03 13:20:00,
2013-07-03 09:25:00,94.6,83.8,30.12,SW,215,15.2,21.5,71,0.00,,---,0.00,VWS V14.01,2013-07-03 13:25:00,
2013-07-03 09:30:00,91.0,83.6,30.09,SSW,211,13.4,17.9,79,0.00,,---,0.00,VWS V14.01,2013-07-03 13:30:00,
2013-07-03 09:35:00,93.7,83.8,30.12,SSW,201,17.4,19.7,73,0.00,,---,0.00,VWS V14.01,2013-07-03 13:35:00,
2013-07-03 09:40:00,93.2,83.3,30.12,SW,228,11.2,21.0,73,0.00,,---,0.00,VWS V14.01,2013-07-03 13:40:00,
2013-07-03 09:45:00,91.2,84.2,30.12,SSW,205,16.1,17.9,80,0.00,,---,0.00,VWS V14.01,2013-07-03 13:45:00,
2013-07-03 09:50:00,93.9,83.1,30.12,SSW,212,10.3,18.8,71,0.00,,---,0.00,VWS V14.01,2013-07-03 13:50:00,
2013-07-03 09:55:00,93.9,83.1,30.12,SW,226,12.1,19.2,71,0.00,,---,0.00,VWS V14.01,2013-07-03 13:55:00,
2013-07-03 10:00:00,92.8,84.2,30.12,SW,216,16.6,17.0,76,0.00,,---,0.00,VWS V14.01,2013-07-03 14:00:00,
2013-07-03 10:05:00,95.2,83.4,30.12,SSW,211,13.0,17.4,69,0.00,,---,0.00,VWS V14.01,2013-07-03 14:05:00,
2013-07-03 10:10:00,95.2,83.4,30.12,SW,219,9.4,17.0,69,0.00,,---,0.00,VWS V14.01,2013-07-03 14:10:00,
2013-07-03 10:15:00,93.6,84.9,30.12,SSW,192,17.9,19.7,76,0.00,,---,0.00,VWS V14.01,2013-07-03 14:15:00,
2013-07-03 10:20:00,95.2,83.4,30.12,SSW,207,12.5,18.3,69,0.00,,---,0.00,VWS V14.01,2013-07-03 14:20:00,
2013-07-03 10:25:00,94.6,83.8,30.12,SW,215,15.2,21.5,71,0.00,,---,0.00,VWS V14.01,2013-07-03 14:25:00,
2013-07-03 10:30:00,95.2,83.4,30.09,SW,218,12.1,16.6,69,0.00,,---,0.00,VWS V14.01,2013-07-03 14:30:00,
2013-07-03 10:35:00,96.6,83.9,30.09,SSW,205,15.7,15.7,67,0.00,,---,0.00,VWS V14.01,2013-07-03 14:35:00,
2013-07-03 10:40:00,93.2,83.3,30.12,SW,228,11.2,21.0,73,0.00,,---,0.00,VWS V14.01,2013-07-03 14:40:00,
2013-07-03 10:45:00,96.6,83.9,30.12,SW,216,10.7,14.3,67,0.00,,---,0.00,VWS V14.01,2013-07-03 14:45:00,
2013-07-03 10:50:00,96.4,84.2,30.12,SW,219,7.2,13.4,68,0.00,,---,0.00,VWS V14.01,2013-07-03 14:50:00,
2013-07-03 10:55:00,93.9,83.1,30.12,SW,226,12.1,19.2,71,0.00,,---,0.00,VWS V14.01,2013-07-03 14:55:00,
2013-07-03 11:00:00,96.4,84.2,30.12,SSW,205,9.4,15.7,68,0.00,,---,0.00,VWS V14.01,2013-07-03 15:00:00,
2013-07-03 11:05:00,96.4,84.2,30.12,SSW,192,13.4,15.2,68,0.00,,---,0.00,VWS V14.01,2013-07-03 15:05:00,
2013-07-03 11:10:00,96.4,84.2,30.12,SSE,163,6.3,14.3,68,0.00,,---,0.00,VWS V14.01,2013-07-03 15:10:00,
2013-07-03 11:15:00,96.4,84.2,30.12,SSE,161,4.9,8.5,68,0.00,,---,0.00,VWS V14.01,2013-07-03 15:15:00,
2013-07-03 11:20:00,96.4,84.2,30.12,South,191,9.4,13.0,68,0.00,,---,0.00,VWS V14.01,2013-07-03 15:20:00,
2013-07-03 11:25:00,96.4,84.2,30.12,SW,215,8.1,11.2,68,0.00,,---,0.00,VWS V14.01,2013-07-03 15:25:00,
2013-07-03 11:30:00,96.4,84.2,30.12,SSW,207,14.8,16.1,68,0.00,,---,0.00,VWS V14.01,2013-07-03 15:30:00,
2013-07-03 11:35:00,96.6,83.9,30.09,SSW,205,15.7,15.7,67,0.00,,---,0.00,VWS V14.01,2013-07-03 15:35:00,
2013-07-03 11:40:00,96.4,84.2,30.12,South,183,11.2,14.3,68,0.00,,---,0.00,VWS V14.01,2013-07-03 15:40:00,
2013-07-03 11:45:00,96.6,83.9,30.12,SW,216,10.7,14.3,67,0.00,,---,0.00,VWS V14.01,2013-07-03 15:45:00,
2013-07-03 11:50:00,100.6,83.1,30.12,SSW,205,7.2,12.1,58,0.00,,---,0.00,VWS V14.01,2013-07-03 15:50:00,
2013-07-03 11:55:00,100.6,83.1,30.12,SSW,207,7.6,10.7,58,0.00,,---,0.00,VWS V14.01,2013-07-03 15:55:00,
2013-07-03 12:00:00,100.6,83.1,30.12,South,187,5.4,13.0,58,0.00,,---,0.00,VWS V14.01,2013-07-03 16:00:00,
2013-07-03 12:05:00,96.4,84.2,30.12,SSW,192,13.4,15.2,68,0.00,,---,0.00,VWS V14.01,2013-07-03 16:05:00,
2013-07-03 12:10:00,96.4,84.2,30.12,SSE,163,6.3,14.3,68,0.00,,---,0.00,VWS V14.01,2013-07-03 16:10:00,
2013-07-03 12:15:00,100.6,83.1,30.12,South,176,5.8,13.4,58,0.00,,---,0.00,VWS V14.01,2013-07-03 16:15:00,
2013-07-03 12:20:00,96.4,84.2,30.12,South,191,9.4,13.0,68,0.00,,---,0.00,VWS V14.01,2013-07-03 16:20:00,
2013-07-03 12:25:00,100.6,83.1,30.12,SW,228,4.5,13.4,58,0.00,,---,0.00,VWS V14.01,2013-07-03 16:25:00,
2013-07-03 12:30:00,100.6,83.1,30.12,SW,222,12.5,14.8,58,0.00,,---,0.00,VWS V14.01,2013-07-03 16:30:00,
2013-07-03 12:35:00,100.6,83.1,30.12,SSW,211,11.6,13.0,58,0.00,,---,0.00,VWS V14.01,2013-07-03 16:35:00,
2013-07-03 12:40:00,100.6,83.1,30.12,SW,225,10.3,14.3,58,0.00,,---,0.00,VWS V14.01,2013-07-03 16:40:00,
2013-07-03 12:45:00,100.6,83.1,30.12,South,177,3.6,11.2,58,0.00,,---,0.00,VWS V14.01,2013-07-03 16:45:00,
2013-07-03 12:50:00,100.6,83.1,30.12,SW,218,7.2,12.1,58,0.00,,---,0.00,VWS V14.01,2013-07-03 16:50:00,
2013-07-03 12:55:00,100.6,83.1,30.12,SW,236,4.5,10.3,58,0.00,,---,0.00,VWS V14.01,2013-07-03 16:55:00,
2013-07-03 13:00:00,100.6,83.1,30.09,SSW,208,9.4,15.2,58,0.00,,---,0.00,VWS V14.01,2013-07-03 17:00:00,
2013-07-03 13:05:00,100.6,83.1,30.12,SSW,209,9.8,12.5,58,0.00,,---,0.00,VWS V14.01,2013-07-03 17:05:00,
2013-07-03 13:10:00,100.6,83.1,30.12,SSW,194,8.5,15.7,58,0.00,,---,0.00,VWS V14.01,2013-07-03 17:10:00,
2013-07-03 13:15:00,100.6,83.1,30.09,WSW,240,10.7,13.9,58,0.00,,---,0.00,VWS V14.01,2013-07-03 17:15:00,
2013-07-03 13:20:00,100.6,83.1,30.12,SSW,205,13.4,15.2,58,0.00,,---,0.00,VWS V14.01,2013-07-03 17:20:00,
2013-07-03 13:25:00,100.6,83.1,30.09,SW,228,6.3,14.3,58,0.00,,---,0.00,VWS V14.01,2013-07-03 17:25:00,
2013-07-03 13:30:00,100.6,83.1,30.09,SSW,200,9.4,14.3,58,0.00,,---,0.00,VWS V14.01,2013-07-03 17:30:00,
2013-07-03 13:35:00,100.6,83.1,30.12,SSW,211,11.6,13.0,58,0.00,,---,0.00,VWS V14.01,2013-07-03 17:35:00,
2013-07-03 13:40:00,100.6,83.1,30.12,SW,225,10.3,14.3,58,0.00,,---,0.00,VWS V14.01,2013-07-03 17:40:00,
2013-07-03 13:45:00,100.6,83.1,30.12,WSW,247,8.9,13.0,58,0.00,,---,0.00,VWS V14.01,2013-07-03 17:45:00,
2013-07-03 13:50:00,100.6,83.1,30.09,South,170,3.6,11.6,58,0.00,,---,0.00,VWS V14.01,2013-07-03 17:50:00,
2013-07-03 13:55:00,100.6,83.1,30.09,South,173,7.2,9.8,58,0.00,,---,0.00,VWS V14.01,2013-07-03 17:55:00,
2013-07-03 14:00:00,100.6,83.1,30.09,South,170,5.4,14.3,58,0.00,,---,0.00,VWS V14.01,2013-07-03 18:00:00,
2013-07-03 14:05:00,100.6,83.1,30.09,SSW,211,10.3,14.3,58,0.00,,---,0.00,VWS V14.01,2013-07-03 18:05:00,
2013-07-03 14:10:00,100.6,83.1,30.09,South,185,7.2,8.9,58,0.00,,---,0.00,VWS V14.01,2013-07-03 18:10:00,
2013-07-03 14:15:00,100.6,83.1,30.09,South,185,6.7,11.6,58,0.00,,---,0.00,VWS V14.01,2013-07-03 18:15:00,
2013-07-03 14:20:00,100.6,83.1,30.09,SSW,195,6.7,12.1,58,0.00,,---,0.00,VWS V14.01,2013-07-03 18:20:00,
2013-07-03 14:25:00,100.6,83.1,30.09,South,173,4.9,8.1,58,0.00,,---,0.00,VWS V14.01,2013-07-03 18:25:00,
2013-07-03 14:30:00,100.6,83.1,30.09,SW,235,5.8,13.0,58,0.00,,---,0.00,VWS V14.01,2013-07-03 18:30:00,
2013-07-03 14:35:00,100.6,83.1,30.09,SW,214,8.9,13.9,58,0.00,,---,0.00,VWS V14.01,2013-07-03 18:35:00,
2013-07-03 14:40:00,100.6,83.1,30.09,South,190,8.5,12.5,58,0.00,,---,0.00,VWS V14.01,2013-07-03 18:40:00,
2013-07-03 14:45:00,100.6,83.1,30.09,SW,226,8.9,11.2,58,0.00,,---,0.00,VWS V14.01,2013-07-03 18:45:00,
2013-07-03 14:50:00,100.6,83.1,30.09,South,170,3.6,11.6,58,0.00,,---,0.00,VWS V14.01,2013-07-03 18:50:00,
2013-07-03 14:55:00,100.6,83.1,30.09,SSW,198,3.6,9.8,58,0.00,,---,0.00,VWS V14.01,2013-07-03 18:55:00,
2013-07-03 15:00:00,100.6,83.1,30.09,SW,229,7.6,12.5,58,0.00,,---,0.00,VWS V14.01,2013-07-03 19:00:00,
2013-07-03 15:05:00,100.6,83.1,30.09,SE,138,6.7,8.1,58,0.00,,---,0.00,VWS V14.01,2013-07-03 19:05:00,
2013-07-03 15:10:00,100.6,83.1,30.09,South,185,7.2,8.9,58,0.00,,---,0.00,VWS V14.01,2013-07-03 19:10:00,
2013-07-03 15:15:00,100.6,83.1,30.09,SW,219,11.2,13.0,58,0.00,,---,0.00,VWS V14.01,2013-07-03 19:15:00,
2013-07-03 15:20:00,100.6,83.1,30.09,SSE,157,8.1,10.7,58,0.00,,---,0.00,VWS V14.01,2013-07-03 19:20:00,
2013-07-03 15:25:00,100.6,83.1,30.09,SSW,205,7.2,10.7,58,0.00,,---,0.00,VWS V14.01,2013-07-03 19:25:00,
2013-07-03 15:30:00,100.6,83.1,30.06,SSW,204,6.7,11.2,58,0.00,,---,0.00,VWS V14.01,2013-07-03 19:30:00,
2013-07-03 15:35:00,100.6,83.1,30.09,WSW,242,8.1,13.0,58,0.00,,---,0.00,VWS V14.01,2013-07-03 19:35:00,
2013-07-03 15:40:00,100.6,83.1,30.06,SSW,211,8.5,11.6,58,0.00,,---,0.00,VWS V14.01,2013-07-03 19:40:00,
2013-07-03 15:45:00,100.6,83.1,30.09,SW,226,8.9,11.2,58,0.00,,---,0.00,VWS V14.01,2013-07-03 19:45:00,
2013-07-03 15:50:00,100.6,83.1,30.09,SW,219,6.3,12.5,58,0.00,,---,0.00,VWS V14.01,2013-07-03 19:50:00,
2013-07-03 15:55:00,100.6,83.1,30.06,WSW,253,6.3,9.8,58,0.00,,---,0.00,VWS V14.01,2013-07-03 19:55:00,
2013-07-03 16:00:00,100.6,83.1,30.06,SW,218,4.5,9.4,58,0.00,,---,0.00,VWS V14.01,2013-07-03 20:00:00,
2013-07-03 16:05:00,100.6,83.1,30.06,SSW,208,4.5,10.7,58,0.00,,---,0.00,VWS V14.01,2013-07-03 20:05:00,
2013-07-03 16:10:00,100.6,83.1,30.09,SSE,159,4.9,11.2,58,0.00,,---,0.00,VWS V14.01,2013-07-03 20:10:00,
2013-07-03 16:15:00,100.6,83.1,30.09,SW,219,11.2,13.0,58,0.00,,---,0.00,VWS V14.01,2013-07-03 20:15:00,
2013-07-03 16:20:00,100.6,83.1,30.06,SSW,208,9.4,13.4,58,0.00,,---,0.00,VWS V14.01,2013-07-03 20:20:00,
2013-07-03 16:25:00,100.6,83.1,30.09,SSW,205,7.2,10.7,58,0.00,,---,0.00,VWS V14.01,2013-07-03 20:25:00,
2013-07-03 16:30:00,100.6,83.1,30.06,SW,215,6.3,9.4,58,0.00,,---,0.00,VWS V14.01,2013-07-03 20:30:00,
2013-07-03 16:35:00,100.6,83.1,30.06,SSW,201,8.1,13.9,58,0.00,,---,0.00,VWS V14.01,2013-07-03 20:35:00,
2013-07-03 16:40:00,100.6,83.1,30.06,SSW,211,8.5,11.6,58,0.00,,---,0.00,VWS V14.01,2013-07-03 20:40:00,
2013-07-03 16:45:00,100.6,83.1,30.06,SSW,201,9.8,13.4,58,0.00,,---,0.00,VWS V14.01,2013-07-03 20:45:00,
2013-07-03 16:50:00,100.6,83.1,30.06,SW,223,8.9,11.2,58,0.00,,---,0.00,VWS V14.01,2013-07-03 20:50:00,
2013-07-03 16:55:00,100.6,83.1,30.06,SSW,211,12.1,14.3,58,0.00,,---,0.00,VWS V14.01,2013-07-03 20:55:00,
2013-07-03 17:00:00,100.6,83.1,30.06,SW,218,4.5,9.4,58,0.00,,---,0.00,VWS V14.01,2013-07-03 21:00:00,
2013-07-03 17:05:00,100.6,83.1,30.06,SW,218,8.5,13.9,58,0.00,,---,0.00,VWS V14.01,2013-07-03 21:05:00,
2013-07-03 17:10:00,100.6,83.1,30.06,SSW,212,5.8,12.1,58,0.00,,---,0.00,VWS V14.01,2013-07-03 21:10:00,
2013-07-03 17:15:00,100.6,83.1,30.06,SSW,202,6.3,13.4,58,0.00,,---,0.00,VWS V14.01,2013-07-03 21:15:00,
2013-07-03 17:20:00,100.6,83.1,30.06,SSW,197,9.4,12.1,58,0.00,,---,0.00,VWS V14.01,2013-07-03 21:20:00,
2013-07-03 17:25:00,100.6,83.1,30.06,SSW,204,6.7,12.1,58,0.00,,---,0.00,VWS V14.01,2013-07-03 21:25:00,
2013-07-03 17:30:00,100.6,83.1,30.06,SSW,205,7.2,11.2,58,0.00,,---,0.00,VWS V14.01,2013-07-03 21:30:00,
2013-07-03 17:35:00,100.6,83.1,30.06,SSW,201,8.1,13.9,58,0.00,,---,0.00,VWS V14.01,2013-07-03 21:35:00,
2013-07-03 17:40:00,100.6,83.1,30.06,SSW,201,11.2,15.2,58,0.00,,---,0.00,VWS V14.01,2013-07-03 21:40:00,
2013-07-03 17:45:00,100.6,83.1,30.06,SSW,211,8.9,14.8,58,0.00,,---,0.00,VWS V14.01,2013-07-03 21:45:00,
2013-07-03 17:50:00,100.6,83.1,30.06,South,176,7.6,14.8,58,0.00,,---,0.00,VWS V14.01,2013-07-03 21:50:00,
2013-07-03 17:55:00,100.6,83.1,30.06,SSW,211,12.1,14.3,58,0.00,,---,0.00,VWS V14.01,2013-07-03 21:55:00,
2013-07-03 18:00:00,100.6,83.1,30.06,SW,214,7.2,13.4,58,0.00,,---,0.00,VWS V14.01,2013-07-03 22:00:00,
2013-07-03 18:05:00,100.6,83.1,30.06,SW,218,8.5,13.9,58,0.00,,---,0.00,VWS V14.01,2013-07-03 22:05:00,
2013-07-03 18:10:00,100.6,83.1,30.06,SSW,194,9.8,13.9,58,0.00,,---,0.00,VWS V14.01,2013-07-03 22:10:00,
2013-07-03 18:15:00,100.6,83.1,30.06,SW,218,5.8,8.1,58,0.00,,---,0.00,VWS V14.01,2013-07-03 22:15:00,
2013-07-03 18:20:00,100.6,83.1,30.06,SSW,204,9.4,10.3,58,0.00,,---,0.00,VWS V14.01,2013-07-03 22:20:00,
2013-07-03 18:25:00,100.6,83.1,30.06,South,177,4.9,9.8,58,0.00,,---,0.00,VWS V14.01,2013-07-03 22:25:00,
2013-07-03 18:30:00,100.6,83.1,30.06,SSW,205,7.2,11.2,58,0.00,,---,0.00,VWS V14.01,2013-07-03 22:30:00,
2013-07-03 18:35:00,100.6,83.1,30.06,SSW,194,13.9,16.1,58,0.00,,---,0.00,VWS V14.01,2013-07-03 22:35:00,
2013-07-03 18:40:00,100.6,83.1,30.06,South,185,8.5,14.3,58,0.00,,---,0.00,VWS V14.01,2013-07-03 22:40:00,
2013-07-03 18:45:00,100.6,83.1,30.06,SSW,195,7.2,11.6,58,0.00,,---,0.00,VWS V14.01,2013-07-03 22:45:00,
2013-07-03 18:50:00,100.6,83.1,30.06,South,176,7.6,14.8,58,0.00,,---,0.00,VWS V14.01,2013-07-03 22:50:00,
2013-07-03 18:55:00,100.6,83.1,30.06,South,185,8.9,13.9,58,0.00,,---,0.00,VWS V14.01,2013-07-03 22:55:00,
2013-07-03 19:00:00,100.6,83.1,30.06,SSW,195,11.6,13.9,58,0.00,,---,0.00,VWS V14.01,2013-07-03 23:00:00,
2013-07-03 19:05:00,100.6,83.1,30.06,SSW,201,13.0,15.2,58,0.00,,---,0.00,VWS V14.01,2013-07-03 23:05:00,
2013-07-03 19:10:00,100.6,83.1,30.06,SSW,201,10.3,13.9,58,0.00,,---,0.00,VWS V14.01,2013-07-03 23:10:00,
2013-07-03 19:15:00,100.6,83.1,30.06,South,185,8.9,14.3,58,0.00,,---,0.00,VWS V14.01,2013-07-03 23:15:00,
2013-07-03 19:20:00,100.6,83.1,30.06,SSW,198,8.5,13.4,58,0.00,,---,0.00,VWS V14.01,2013-07-03 23:20:00,
2013-07-03 19:25:00,100.6,83.1,30.06,South,177,4.9,9.8,58,0.00,,---,0.00,VWS V14.01,2013-07-03 23:25:00,
2013-07-03 19:30:00,100.6,83.1,30.06,SSW,201,9.4,12.5,58,0.00,,---,0.00,VWS V14.01,2013-07-03 23:30:00,
2013-07-03 19:35:00,100.6,83.1,30.06,SSW,204,6.3,12.1,58,0.00,,---,0.00,VWS V14.01,2013-07-03 23:35:00,
2013-07-03 19:40:00,100.6,83.1,30.06,South,185,8.5,14.3,58,0.00,,---,0.00,VWS V14.01,2013-07-03 23:40:00,
2013-07-03 19:45:00,100.6,83.1,30.06,SSW,195,7.2,11.6,58,0.00,,---,0.00,VWS V14.01,2013-07-03 23:45:00,
2013-07-03 19:50:00,100.6,83.1,30.06,SSW,194,8.1,11.2,58,0.00,,---,0.00,VWS V14.01,2013-07-03 23:50:00,
2013-07-03 19:55:00,100.6,83.1,30.06,South,185,8.9,13.9,58,0.00,,---,0.00,VWS V14.01,2013-07-03 23:55:00,
2013-07-03 20:00:00,100.6,83.1,30.06,SSW,197,4.5,8.1,58,0.00,,---,0.00,VWS V14.01,2013-07-04 00:00:00,
2013-07-03 20:05:00,100.6,83.1,30.06,SSW,195,11.2,13.4,58,0.00,,---,0.00,VWS V14.01,2013-07-04 00:05:00,
2013-07-03 20:10:00,100.6,83.1,30.06,SSW,207,0.9,5.8,58,0.00,,---,0.00,VWS V14.01,2013-07-04 00:10:00,
2013-07-03 20:15:00,100.6,83.1,30.09,SSW,205,0.0,0.9,58,0.00,,---,0.00,VWS V14.01,2013-07-04 00:15:00,
2013-07-03 20:20:00,100.6,83.1,30.09,SSW,207,0.0,4.9,58,0.00,,---,0.00,VWS V14.01,2013-07-04 00:20:00,
2013-07-03 20:25:00,100.6,83.1,30.06,SSW,202,8.5,10.7,58,0.00,,---,0.00,VWS V14.01,2013-07-04 00:25:00,
2013-07-03 20:30:00,100.6,83.1,30.09,SSW,207,2.2,4.5,58,0.00,,---,0.00,VWS V14.01,2013-07-04 00:30:00,
2013-07-03 20:35:00,100.6,83.1,30.09,SSW,207,3.1,4.9,58,0.00,,---,0.00,VWS V14.01,2013-07-04 00:35:00,
2013-07-03 20:40:00,100.6,83.1,30.09,SSW,207,2.7,3.6,58,0.00,,---,0.00,VWS V14.01,2013-07-04 00:40:00,
2013-07-03 20:45:00,100.6,83.1,30.06,SW,216,10.3,12.1,58,0.00,,---,0.00,VWS V14.01,2013-07-04 00:45:00,
2013-07-03 20:50:00,100.6,83.1,30.09,SSW,207,2.7,4.0,58,0.00,,---,0.00,VWS V14.01,2013-07-04 00:50:00,
2013-07-03 20:55:00,100.6,83.1,30.09,SSW,207,4.9,5.8,58,0.00,,---,0.00,VWS V14.01,2013-07-04 00:55:00,
2013-07-03 21:00:00,100.6,83.1,30.06,SSW,197,4.5,8.1,58,0.00,,---,0.00,VWS V14.01,2013-07-04 01:00:00,
2013-07-03 21:05:00,100.6,83.1,30.06,SSW,194,3.6,6.3,58,0.00,,---,0.00,VWS V14.01,2013-07-04 01:05:00,
2013-07-03 21:10:00,100.6,83.1,30.09,SSW,211,4.0,6.3,58,0.00,,---,0.00,VWS V14.01,2013-07-04 01:10:00,
2013-07-03 21:15:00,100.6,83.1,30.09,SSW,205,0.0,0.9,58,0.00,,---,0.00,VWS V14.01,2013-07-04 01:15:00,
2013-07-03 21:20:00,100.6,83.1,30.09,SSW,209,4.0,5.8,58,0.00,,---,0.00,VWS V14.01,2013-07-04 01:20:00,
2013-07-03 21:25:00,100.6,83.1,30.09,SSW,209,4.9,6.3,58,0.00,,---,0.00,VWS V14.01,2013-07-04 01:25:00,
2013-07-03 21:30:00,100.6,83.1,30.09,SSW,207,2.2,4.5,58,0.00,,---,0.00,VWS V14.01,2013-07-04 01:30:00,
2013-07-03 21:35:00,100.6,83.1,30.09,SSW,209,2.7,3.6,58,0.00,,---,0.00,VWS V14.01,2013-07-04 01:35:00,
2013-07-03 21:40:00,100.6,83.1,30.09,SSW,207,2.7,3.6,58,0.00,,---,0.00,VWS V14.01,2013-07-04 01:40:00,
2013-07-03 21:45:00,100.6,83.1,30.09,SSW,209,2.7,2.7,58,0.00,,---,0.00,VWS V14.01,2013-07-04 01:45:00,
2013-07-03 21:50:00,100.6,83.1,30.09,SSW,207,2.7,4.0,58,0.00,,---,0.00,VWS V14.01,2013-07-04 01:50:00,
2013-07-03 21:55:00,100.6,83.1,30.09,SSW,209,5.4,6.3,58,0.00,,---,0.00,VWS V14.01,2013-07-04 01:55:00,
2013-07-03 22:00:00,100.6,83.1,30.09,SSW,209,3.1,6.3,58,0.00,,---,0.00,VWS V14.01,2013-07-04 02:00:00,
2013-07-03 22:05:00,100.6,83.1,30.09,SSW,209,0.0,5.8,58,0.00,,---,0.00,VWS V14.01,2013-07-04 02:05:00,
2013-07-03 22:10:00,100.6,83.1,30.09,SSW,211,4.0,6.3,58,0.00,,---,0.00,VWS V14.01,2013-07-04 02:10:00,
2013-07-03 22:15:00,100.6,83.1,30.09,SSW,209,0.0,3.1,58,0.00,,---,0.00,VWS V14.01,2013-07-04 02:15:00,
2013-07-03 22:20:00,100.6,83.1,30.09,SSW,208,0.0,3.1,58,0.00,,---,0.00,VWS V14.01,2013-07-04 02:20:00,
2013-07-03 22:25:00,100.6,83.1,30.09,SSW,209,0.0,0.0,58,0.00,,---,0.00,VWS V14.01,2013-07-04 02:25:00,
2013-07-03 22:30:00,100.6,83.1,30.09,SSW,209,0.0,0.0,58,0.00,,---,0.00,VWS V14.01,2013-07-04 02:30:00,
2013-07-03 22:35:00,100.6,83.1,30.09,SSW,209,2.7,3.6,58,0.00,,---,0.00,VWS V14.01,2013-07-04 02:35:00,
2013-07-03 22:40:00,100.6,83.1,30.09,SSW,209,0.0,0.0,58,0.00,,---,0.00,VWS V14.01,2013-07-04 02:40:00,
2013-07-03 22:45:00,100.6,83.1,30.09,SSW,209,2.7,2.7,58,0.00,,---,0.00,VWS V14.01,2013-07-04 02:45:00,
2013-07-03 22:50:00,100.6,83.1,30.09,SSW,208,2.7,6.3,58,0.00,,---,0.00,VWS V14.01,2013-07-04 02:50:00,
2013-07-03 22:55:00,100.6,83.1,30.09,South,176,4.0,4.0,58,0.00,,---,0.00,VWS V14.01,2013-07-04 02:55:00,
2013-07-03 23:00:00,100.6,83.1,30.09,South,180,2.7,5.8,58,0.00,,---,0.00,VWS V14.01,2013-07-04 03:00:00,
2013-07-03 23:05:00,100.6,83.1,30.09,SSW,197,6.3,8.5,58,0.00,,---,0.00,VWS V14.01,2013-07-04 03:05:00,
2013-07-03 23:10:00,100.6,83.1,30.09,SSW,209,0.0,0.0,58,0.00,,---,0.00,VWS V14.01,2013-07-04 03:10:00,
2013-07-03 23:15:00,100.6,83.1,30.09,SSW,209,0.0,3.1,58,0.00,,---,0.00,VWS V14.01,2013-07-04 03:15:00,
2013-07-03 23:20:00,100.6,83.1,30.09,SSW,194,7.2,8.9,58,0.00,,---,0.00,VWS V14.01,2013-07-04 03:20:00,
2013-07-03 23:25:00,100.6,83.1,30.09,SSW,209,0.0,0.0,58,0.00,,---,0.00,VWS V14.01,2013-07-04 03:25:00,
2013-07-03 23:30:00,100.6,83.1,30.09,South,171,1.8,7.6,58,0.00,,---,0.00,VWS V14.01,2013-07-04 03:30:00,
2013-07-03 23:35:00,100.6,83.1,30.09,South,170,4.0,4.0,58,0.00,,---,0.00,VWS V14.01,2013-07-04 03:35:00,
2013-07-03 23:40:00,100.6,83.1,30.09,SSW,209,0.0,0.0,58,0.00,,---,0.00,VWS V14.01,2013-07-04 03:40:00,
2013-07-03 23:45:00,100.6,83.1,30.09,South,173,4.0,6.3,58,0.00,,---,0.00,VWS V14.01,2013-07-04 03:45:00,
2013-07-03 23:50:00,100.6,83.1,30.09,South,173,2.7,4.5,58,0.00,,---,0.00,VWS V14.01,2013-07-04 03:50:00,
2013-07-03 23:55:00,100.6,83.1,30.09,South,173,2.2,4.5,58,0.00,,---,0.00,VWS V14.01,2013-07-04 03:55:00,